Bellingham, WA
on Saturday, November 10, 2012

Saturday
Previous Day Next Day
Daily Summary
 ActualAverageRecord
Temperature
Mean Temperature °F 45°F  
Max Temperature 43°F 51°F 63°F (1952)
Min Temperature 28°F 38°F 25°F (1982)
Degree Days
Heating Degree Days 30 20  
Month to date heating degree days 195  
Cooling Degree Days 0 0  
Month to date cooling degree days 0  
Year to date cooling degree days 42  
Moisture
Dew Point 19°F   
Average Humidity 54    
Maximum Humidity 85    
Minimum Humidity 35    
Precipitation
Precipitation 0.00 in 0.20 in 1.64 in (1990)
Month to date precipitation 1.93  
Year to date precipitation 27.74  
Wind
Wind Speed 9 mph   
Max Wind Speed 20 mph   
Max Gust Speed 30 mph   
Visibility 10 miles   
Events     

Key: T is trace of precipitation, MM is missing value
Source: NWS Daily Summary
Time(PST)TemperatureDew PointHumidity Pressure Visibility Wind DirectionWind SpeedGust SpeedPrecipitationEvents Conditions
12:53 AM 36.0°F 19.0°F 50% 30.01 in 10.0 miles North 10.4 mph 18.4 mph N/A   Clear
1:53 AM 35.1°F 18.0°F 50% 30.03 in 10.0 miles North 12.7 mph 19.6 mph N/A   Clear
2:53 AM 35.1°F 18.0°F 50% 30.04 in 10.0 miles North 13.8 mph 23.0 mph N/A   Clear
3:53 AM 34.0°F 17.1°F 50% 30.04 in 10.0 miles North 10.4 mph - N/A   Clear
4:53 AM 33.1°F 17.1°F 52% 30.06 in 10.0 miles North 8.1 mph - N/A   Scattered Clouds
5:53 AM 34.0°F 17.1°F 50% 30.07 in 10.0 miles North 9.2 mph - N/A   Overcast
6:53 AM 33.1°F 16.0°F 50% 30.09 in 10.0 miles North 8.1 mph - N/A   Overcast
7:53 AM 33.1°F 16.0°F 50% 30.11 in 10.0 miles North 8.1 mph - N/A   Clear
8:53 AM 36.0°F 17.1°F 46% 30.11 in 10.0 miles North 10.4 mph - N/A   Clear
9:53 AM 39.0°F 15.1°F 38% 30.12 in 10.0 miles NNE 18.4 mph 26.5 mph N/A   Clear
10:53 AM 39.9°F 16.0°F 38% 30.14 in 10.0 miles NNE 19.6 mph 27.6 mph N/A   Clear
11:53 AM 41.0°F 16.0°F 36% 30.14 in 10.0 miles North 15.0 mph 29.9 mph N/A   Clear
12:53 PM 43.0°F 17.1°F 35% 30.17 in 10.0 miles North 11.5 mph 18.4 mph N/A   Clear
1:53 PM 43.0°F 17.1°F 35% 30.18 in 10.0 miles North 10.4 mph - N/A   Clear
2:53 PM 42.1°F 18.0°F 38% 30.17 in 10.0 miles NNE 10.4 mph - N/A   Clear
3:53 PM 39.9°F 18.0°F 41% 30.18 in 10.0 miles North 5.8 mph - N/A   Clear
4:53 PM 36.0°F 19.9°F 52% 30.19 in 10.0 miles NW 4.6 mph - N/A   Clear
5:53 PM 33.1°F 21.0°F 61% 30.20 in 10.0 miles Calm Calm - N/A   Clear
6:53 PM 30.0°F 21.9°F 72% 30.21 in 10.0 miles Calm Calm - N/A   Clear
7:53 PM 28.4°F 21.2°F 74% 30.18 in 10.0 miles Calm Calm - N/A   Clear
8:53 PM 28.4°F 23.0°F 80% 30.19 in 10.0 miles Calm Calm - N/A   Clear
9:53 PM 28.9°F 23.0°F 78% 30.24 in 10.0 miles Calm Calm - N/A   Clear
10:53 PM 28.0°F 24.1°F 85% 30.25 in 10.0 miles Calm Calm - N/A   Clear
11:53 PM 28.0°F 24.1°F 85% 30.25 in 10.0 miles Calm Calm - N/A   Clear
Moon Phase
Nov. 10 Nov. 13 Nov. 20 Nov. 28 Dec. 06
Sunrise:07:12 AM (PST) Moon Rise:03:07 AM (PST)11/10
Sunset:04:35 PM (PST) Moon Set:02:39 PM (PST)11/10

Copyright © 2014 The Weather Underground, Inc.